Location: Wald
(31.7579°N, 86.6655°W)
Time: 20:32:56
(UTC+00:00)

CZ-4C R/B - Pass Details

Date: 14 July 2020
Orbit: 409 x 491 km, 97.7° (Epoch: 13 August)

Event Time Altitude Azimuth Distance (km) Brightness Sun altitude
Exits shadow 10:09:24 11° 220° (SW) 1,481 4.9 -8.7°
Maximum altitude 10:11:33 18° 263° (W) 1,123 4.4 -8.3°
Drops below altitude 10° 10:13:50 10° 308° (NW) 1,504 5.4 -7.9°
Sets 10:16:16 0° 329° (NNW) 2,361 6.6 -7.4°
